Hourly Data Report for May 07, 2012

All times are specified in Local Standard Time (LST). Add 1 hour to adjust for Daylight Saving Time where and when it is observed.

DEER LAKE A
NEWFOUNDLAND

49°12'33.000" N
57°23'40.000" W
21.90 m
8401502
71809
YDF

Download Data

Hourly Data (May 2012)
Hourly Data Report for May 7, 2012
Temp Definition
°C
Dew Point Temp Definition
°C
Rel Hum Definition
%
Wind Dir Definition
10's deg

Wind Spd Definition
km/h
Visibility Definition
km
Stn Press Definition
kPa
Hmdx Definition


Wind Chill Definition


Weather Definition


TIME
00:30 Legend Double Dagger 5.5 3.2 85 4 9 10.0 101.57     LegendNANA
01:30 Legend Double Dagger 5.2 3.1 86 5 9 10.0 101.57     LegendNANA
02:30 Legend Double Dagger 4.9 2.9 87 5 10 10.0 101.56     Cloudy
03:30 Legend Double Dagger 4.6 2.6 87 3 8 10.0 101.58     LegendNANA
04:30 Legend Double Dagger 3.8 2.0 88 4 14 10.0 101.59     LegendNANA
05:30 Legend Double Dagger 4.0 2.0 87 4 12 10.0 101.60     Cloudy
06:30 Legend Double Dagger 4.7 2.6 86 4 11 10.0 101.61     LegendNANA
07:30 Legend Double Dagger 5.8 3.5 85 5 11 10.0 101.62     LegendNANA
08:30 Legend Double Dagger 6.3 3.6 83 6 8 10.0 101.64     Cloudy
09:30 Legend Double Dagger 7.8 3.9 76 4 8 10.0 101.62     LegendNANA
10:30 Legend Double Dagger 10.0 4.8 70 7 6 10.0 101.58     LegendNANA
11:30 Legend Double Dagger 12.2 5.9 65 2 8 10.0 101.54     Mostly Cloudy
12:30 Legend Double Dagger 12.6 5.6 62 2 8 10.0 101.53     LegendNANA
13:30 Legend Double Dagger 13.0 5.2 59 6 12 10.0 101.50     LegendNANA
14:30 Legend Double Dagger 12.7 5.2 60 10 14 10.0 101.50     Cloudy
15:30 Legend Double Dagger 13.2 5.9 61 10 9 10.0 101.50     LegendNANA
16:30 Legend Double Dagger 12.4 6.1 65 4 16 10.0 101.52     LegendNANA
17:30 Legend Double Dagger 11.2 6.4 72 3 13 10.0 101.54     Cloudy
18:30 Legend Double Dagger 11.0 6.0 71 4 13 10.0 101.57     LegendNANA
19:30 Legend Double Dagger 9.4 5.4 76 5 15 10.0 101.64     LegendNANA
20:30 Legend Double Dagger 7.6 4.7 82 4 19 10.0 101.69     Cloudy
21:30 Legend Double Dagger 5.8 3.8 87 6 16 10.0 101.72     Rain Showers
22:30 Legend Double Dagger 5.5 3.5 87 4 16 10.0 101.74     Rain Showers
23:30 Legend Double Dagger 4.9 3.9 93 4 12 10.0 101.74     Rain Showers

Notes on Data Quality.

Legend

  • E = Estimated
  • M = Missing
  • NA = Not Available
  • ‡ = Partner data that is not subject to review by the National Climate Archives
Date modified: